TimeCST,TemperatureF,Dew PointF,Humidity,Sea Level PressureIn,VisibilityMPH,Wind Direction,Wind SpeedMPH,Gust SpeedMPH,PrecipitationIn,Events,Conditions,WindDirDegrees,DateUTC
12:15 AM,50.0,34.7,56,30.32,7.0,Calm,Calm,-,N/A,,Clear,0,2013-03-03 06:15:00
12:35 AM,49.6,34.3,56,30.32,7.0,Calm,Calm,-,N/A,,Clear,0,2013-03-03 06:35:00
12:55 AM,49.1,35.6,60,30.32,7.0,Calm,Calm,-,N/A,,Clear,0,2013-03-03 06:55:00
1:35 AM,48.2,35.4,61,30.31,5.0,Calm,Calm,-,N/A,,Haze,0,2013-03-03 07:35:00
1:55 AM,48.6,35.4,60,30.31,7.0,SSW,5.8,-,N/A,,Clear,210,2013-03-03 07:55:00
2:15 AM,48.2,35.2,61,30.30,7.0,SSW,3.5,-,N/A,,Clear,210,2013-03-03 08:15:00
2:35 AM,48.2,36.0,63,30.29,7.0,Calm,Calm,-,N/A,,Clear,0,2013-03-03 08:35:00
2:55 AM,47.8,36.5,65,30.29,7.0,Calm,Calm,-,N/A,,Clear,0,2013-03-03 08:55:00
3:15 AM,47.3,35.8,64,30.28,7.0,Calm,Calm,-,N/A,,Clear,0,2013-03-03 09:15:00
3:35 AM,46.4,35.1,65,30.28,7.0,Calm,Calm,-,N/A,,Clear,0,2013-03-03 09:35:00
3:55 AM,45.3,34.3,65,30.27,10.0,Calm,Calm,-,N/A,,Clear,0,2013-03-03 09:55:00
4:15 AM,44.8,34.3,67,30.27,7.0,Calm,Calm,-,N/A,,Clear,0,2013-03-03 10:15:00
4:35 AM,45.7,35.6,68,30.27,7.0,Calm,Calm,-,N/A,,Clear,0,2013-03-03 10:35:00
4:55 AM,44.1,33.6,67,30.27,7.0,Calm,Calm,-,N/A,,Clear,0,2013-03-03 10:55:00
5:15 AM,43.7,32.5,65,30.27,7.0,Calm,Calm,-,N/A,,Clear,0,2013-03-03 11:15:00
5:35 AM,43.2,32.9,67,30.27,7.0,Calm,Calm,-,N/A,,Clear,0,2013-03-03 11:35:00
5:55 AM,43.2,32.9,67,30.27,7.0,Calm,Calm,-,N/A,,Clear,0,2013-03-03 11:55:00
6:15 AM,42.4,32.2,67,30.27,7.0,Calm,Calm,-,N/A,,Clear,0,2013-03-03 12:15:00
6:55 AM,41.0,32.0,70,30.28,7.0,Calm,Calm,-,N/A,,Clear,0,2013-03-03 12:55:00
7:15 AM,41.2,33.8,75,30.28,5.0,Calm,Calm,-,N/A,,Haze,0,2013-03-03 13:15:00
7:35 AM,43.2,33.4,69,30.29,4.0,Calm,Calm,-,N/A,,Haze,0,2013-03-03 13:35:00
7:55 AM,46.0,37.9,73,30.29,5.0,Calm,Calm,-,N/A,,Haze,0,2013-03-03 13:55:00
8:15 AM,54.1,42.1,64,30.29,5.0,South,6.9,-,N/A,,Haze,180,2013-03-03 14:15:00
8:35 AM,58.5,42.4,55,30.29,7.0,South,4.6,-,N/A,,Clear,170,2013-03-03 14:35:00
8:55 AM,62.4,42.1,47,30.30,7.0,South,10.4,-,N/A,,Clear,170,2013-03-03 14:55:00
9:15 AM,64.8,41.9,43,30.30,5.0,South,9.2,-,N/A,,Haze,170,2013-03-03 15:15:00
9:35 AM,66.6,41.4,40,30.29,7.0,SSE,12.7,-,N/A,,Clear,160,2013-03-03 15:35:00
9:55 AM,67.1,39.7,37,30.29,5.0,SSE,13.8,-,N/A,,Haze,160,2013-03-03 15:55:00
10:15 AM,68.4,39.4,35,30.28,7.0,South,15.0,19.6,N/A,,Clear,170,2013-03-03 16:15:00
10:35 AM,70.0,39.2,33,30.28,5.0,South,10.4,-,N/A,,Haze,180,2013-03-03 16:35:00
10:55 AM,72.0,37.8,29,30.27,5.0,South,13.8,21.9,N/A,,Haze,190,2013-03-03 16:55:00
11:15 AM,72.7,37.2,27,30.25,5.0,South,13.8,20.7,N/A,,Haze,190,2013-03-03 17:15:00
11:55 AM,75.2,34.2,22,30.23,7.0,South,15.0,21.9,N/A,,Clear,180,2013-03-03 17:55:00
12:35 PM,77.0,33.8,21,30.20,5.0,South,16.1,19.6,N/A,,Haze,180,2013-03-03 18:35:00
12:55 PM,77.4,33.4,20,30.18,7.0,South,12.7,20.7,N/A,,Clear,170,2013-03-03 18:55:00
1:15 PM,78.6,29.5,17,30.17,7.0,South,15.0,21.9,N/A,,Clear,180,2013-03-03 19:15:00
1:35 PM,79.2,28.9,16,30.15,7.0,South,11.5,24.2,N/A,,Clear,170,2013-03-03 19:35:00
1:55 PM,80.4,30.7,16,30.13,7.0,South,16.1,24.2,N/A,,Clear,170,2013-03-03 19:55:00
2:35 PM,81.0,28.9,15,30.11,7.0,South,17.3,23.0,N/A,,Clear,180,2013-03-03 20:35:00
3:35 PM,81.1,32.7,17,30.09,7.0,South,12.7,18.4,N/A,,Clear,170,2013-03-03 21:35:00
4:15 PM,79.9,34.0,19,30.06,7.0,SE,18.4,-,N/A,,Clear,140,2013-03-03 22:15:00
4:35 PM,79.7,33.4,19,30.06,7.0,SSE,12.7,23.0,N/A,,Clear,150,2013-03-03 22:35:00